Location: Codford Saint Peter
(51.1597°N, 2.0531°W)
Time: 16:41:13
(UTC+00:00)

Envisat - Pass Details

Date: 05 February 2022
Orbit: 764 x 765 km, 98.2° (Epoch: 19 May)

Event Time Altitude Azimuth Distance (km) Brightness Sun altitude
Rises 06:22:36 0° 7° (N) 3,245 6.2 -12.3°
Reaches altitude 10° 06:25:11 10° 356° (N) 2,315 5.3 -11.9°
Maximum altitude 06:29:28 28° 299° (WNW) 1,403 3.8 -11.2°
Drops below altitude 10° 06:33:45 10° 241° (WSW) 2,303 5.0 -10.6°
Sets 06:36:19 0° 230° (SW) 3,225 5.9 -10.2°
